Location: *
(50.2903°S, 172.5375°W)
Time: 03:45:17
(UTC+00:00)

Cosmos 2278 Rocket - Visible Passes

Search period start: 28 February 2020 00:00
Search period end: 09 March 2020 00:00
Orbit: 841 x 845 km, 71.0° (Epoch: 27 February)

Date Brightness Start Highest point End Pass type
(mag) Time Alt. Az. Time Alt. Az. Time Alt. Az.
28 Feb 4.4 13:32:18 12° NE 13:35:04 16° E 13:38:23 10° ESE visible
28 Feb 2.2 15:14:10 20° NNW 15:18:17 85° ENE 15:24:04 10° SSE visible
29 Feb 4.4 13:18:28 13° ENE 13:20:31 15° E 13:23:42 10° ESE visible
29 Feb 2.2 15:00:20 26° NNW 15:03:42 83° ENE 15:09:29 10° SSE visible
01 Mar 4.4 13:04:35 13° ENE 13:05:59 15° E 13:09:00 10° ESE visible
01 Mar 2.2 14:46:27 33° NNW 14:49:08 80° ENE 14:54:54 10° SSE visible
02 Mar 4.4 12:50:40 14° ENE 12:51:27 14° E 12:54:17 10° ESE visible
02 Mar 2.2 14:32:32 42° NNW 14:34:34 77° ENE 14:40:20 10° SSE visible
02 Mar 3.5 16:14:30 10° W 16:19:17 26° SW 16:24:05 10° SSE visible
03 Mar 4.5 12:36:43 13° E 12:36:55 13° E 12:39:33 10° ESE visible
03 Mar 2.3 14:18:34 51° N 14:20:00 74° ENE 14:25:45 10° SSE visible
03 Mar 3.5 16:00:26 12° W 16:04:41 27° SW 16:09:33 10° SSE visible
04 Mar 4.5 12:22:43 13° E 12:22:43 13° E 12:24:48 10° ESE visible
04 Mar 2.2 14:04:34 61° NNE 14:05:26 72° ENE 14:11:10 10° SSE visible
04 Mar 3.5 15:46:26 15° W 15:50:04 28° SW 15:54:59 10° SSE visible
05 Mar 4.6 12:08:41 12° E 12:08:41 12° E 12:10:01 10° ESE visible
05 Mar 2.2 13:50:32 68° NE 13:50:52 69° ENE 13:56:35 10° SSE visible
05 Mar 3.4 15:32:24 18° W 15:35:28 29° SW 15:40:26 10° SSE visible
06 Mar 4.7 11:54:38 11° E 11:54:38 11° E 11:55:12 10° ESE visible
06 Mar 2.3 13:36:29 66° ENE 13:36:29 66° ENE 13:42:00 10° SSE visible
06 Mar 3.4 15:18:20 21° W 15:20:52 29° SW 15:25:51 10° SSE visible
07 Mar 2.6 13:22:23 59° ESE 13:22:23 59° ESE 13:27:25 10° SE visible
07 Mar 3.4 15:04:14 24° W 15:06:16 30° SW 15:11:18 10° SSE visible
08 Mar 2.8 13:08:16 52° ESE 13:08:16 52° ESE 13:12:50 10° SE visible
08 Mar 3.3 14:50:07 27° WSW 14:51:40 31° SW 14:56:45 10° SSE visible
08 Mar 4.4 16:35:49 10° SW 16:37:46 12° SSW 16:39:43 10° S visible
